Tracking 20037 objects as of 21-Nov-2019
Live streaming from Space Station
objects crossing your sky now

ST5-B

Track ST5-B now!
10-day predictions
ST5-B is classified as:


NORAD ID: 28981
Int'l Code: 2006-008B
Perigee: 271.1 km
Apogee: 2,709.7 km
Inclination: 105.5 °
Period: 115.6 minutes
Semi major axis: 7861 km
RCS: 0.3032 m2 (medium)
Launch date: March 22, 2006
Source: United States (US)
Launch site: Pegasus launched from Western Range Air Space (WRAS)
aabbcc
Your satellite tracking list
Your tracking list is empty




NASA's NSSDC Master Catalog

Two Line Element Set (TLE):
1 28981U 06008B   19323.90381823 +.00011820 +34288-5 +24615-3 0  9997
2 28981 105.4861 351.9977 1550946 206.4950 144.7998 12.45527100567672
Source of the keplerian elements: AFSPC